Flag for U.S.A. Weather past 2 weeks in Rockford, Illinois, U.S.A.

Now
57 °F

Clear.


Feels Like: 57 °F
Forecast: 59 / 84 °F
Wind: 5 mph from South

Location: Greater Rockford Airport

Current Time: Aug 1, 2015 at 6:57:53 AM

Latest Report: Aug 1, 2015 at 5:54 AM


Visibility: 10 mi

Pressure: 30.01 "Hg

Humidity: 87%

Dew point: 53 °F

Location of RockfordLocation

Historic Weather in Rockford — Graph

°F

Rockford temperature yesterday

Maximum temperature yesterday: 85 °F (at 11:54 AM)
Minimum temperature yesterday: 62 °F (at 3:54 AM)
Average temperature yesterday: 75 °F

Past Weeks' High & Low Weather Summary

 TemperatureHumidityPressure
High91 °F (Jul 17, 2:54 PM)94% (Jul 18, 3:54 AM)30.08 "Hg (Jul 18, 3:54 AM)
Low57 °F (Aug 1, 5:54 AM)28% (Jul 31, 5:54 PM)29.75 "Hg (Jul 17, 3:54 PM)
Average76 °F68%29.94 "Hg
* Reported Jul 17 5:54 AM — Aug 1 5:54 AM, Rockford, Weather by CustomWeather, © 2015

Note: Actual official high and low records may vary slightly from our data, if they occured in-between our weather recording intervals... More about our weather records

Advertising

Rockford weather history for previous 24 hours

 ConditionsComfort  
Time TempWeatherWind HumidityBarometerVisibility
5:54 AM
Sat, Aug 1
57 °FClear.5 mph87%30.01 "Hg10 mi
4:54 AM59 °FClear.3 mph81%30.00 "Hg10 mi
3:54 AM61 °FClear.No wind78%30.00 "Hg10 mi
2:54 AM61 °FClear.No wind78%30.00 "Hg10 mi
1:54 AM62 °FClear.No wind75%30.02 "Hg10 mi
12:54 AM63 °FClear.3 mph73%30.01 "Hg10 mi
11:54 PM
Fri, Jul 31
63 °FClear.3 mph73%30.01 "Hg10 mi
10:54 PM67 °FPassing clouds.No wind61%30.00 "Hg10 mi
9:54 PM68 °FClear.6 mph57%30.00 "Hg10 mi
8:54 PM72 °FPassing clouds.6 mph46%29.98 "Hg10 mi
7:54 PM77 °FPassing clouds.12 mph37%29.96 "Hg10 mi
6:54 PM81 °FSunny.15 mph30%29.96 "Hg10 mi
5:54 PM83 °FSunny.16 mph28%29.96 "Hg10 mi
4:54 PM85 °FSunny.18 mph29%29.97 "Hg10 mi
3:54 PM85 °FPassing clouds.21 mph30%29.98 "Hg10 mi
2:54 PM85 °FPassing clouds.21 mph30%29.98 "Hg10 mi
1:54 PM85 °FPassing clouds.20 mph32%29.99 "Hg10 mi
12:54 PM85 °FPassing clouds.20 mph37%30.00 "Hg10 mi
11:54 AM85 °FPassing clouds.24 mph36%30.01 "Hg10 mi
10:54 AM83 °FSunny.15 mph46%30.02 "Hg10 mi
9:54 AM80 °FPassing clouds.12 mph54%30.03 "Hg10 mi
8:54 AM77 °FScattered clouds.9 mph64%30.03 "Hg10 mi
7:54 AM73 °FPassing clouds.7 mph76%30.03 "Hg10 mi
6:54 AM69 °FPartly sunny.No wind81%30.03 "Hg10 mi
Weather by CustomWeather, © 2015

See weather overviewHow to use our weather pages